This demonstration page uses our WeatherBlox Daily Observations layout. Learn more.

Left ArrowRight Arrow

Hourly Observations for April 28, 2021

Temp ( °F °C ) Dew Point ( °F °C ) Humidity (%) Winds ( mph kmh ) Pressure ( in mb ) Visibility ( mi km ) Precip ( " mm )
12:15 am 00:15 Cloudy 54 12 47 8.2 78 78 NE 23 37 29.80 1009 10 16 0.00 0.00
12:35 am 00:35 Cloudy with Thunderstorms 52 11.3 49 9.4 88 88 N 9 15 29.90 1013 4 6 0.09 2.29
12:55 am 00:55 Cloudy with Thunderstorms 52 11.2 49 9.5 89 89 NE 14 22 29.89 1012 7 11 0.12 3.05
1:15 am 01:15 Cloudy with Thunderstorms 52 11.1 49 9.6 91 91 ENE 17 28 29.85 1011 7 11 0.01 0.25
1:35 am 01:35 Cloudy 52 11 49 9.5 91 91 NE 12 19 29.86 1011 10 16 0.01 0.25
1:55 am 01:55 Cloudy with Nearby Thunderstorms 52 11 49 9.5 91 91 E 10 17 29.89 1012 10 16 0.01 0.25
2:15 am 02:15 Cloudy 51 10.8 49 9.4 91 91 NE 12 19 29.88 1012 10 16 0.00 0.00
2:35 am 02:35 Cloudy 51 10.6 49 9.5 93 93 ENE 13 20 29.87 1011 7 11 0.00 0.00
2:55 am 02:55 Cloudy 51 10.5 49 9.3 92 92 NE 15 24 29.87 1011 7 11 0.00 0.00
3:15 am 03:15 Cloudy 51 10.5 49 9.3 92 92 ENE 17 28 29.86 1011 7 11 0.00 0.00
3:35 am 03:35 Cloudy 50 10.2 48 9 92 92 ENE 15 24 29.87 1012 7 11 0.00 0.00
3:55 am 03:55 Cloudy 50 10.2 48 9.1 93 93 NE 14 22 29.86 1011 7 11 0.00 0.00
4:15 am 04:15 Cloudy 50 9.8 48 8.7 93 93 NE 16 26 29.86 1011 7 11 0.00 0.00
4:35 am 04:35 Cloudy 50 9.8 48 8.8 94 94 NE 9 15 29.87 1012 7 11 0.00 0.00
4:55 am 04:55 Cloudy 50 9.8 48 8.8 94 94 NE 10 17 29.87 1012 7 11 0.00 0.00
5:15 am 05:15 Cloudy 50 9.8 48 8.9 94 94 NNE 13 20 29.88 1012 7 11 0.00 0.00
5:35 am 05:35 Cloudy 49 9.7 48 9 95 95 NNE 14 22 29.90 1012 7 11 0.00 0.00
5:55 am 05:55 Cloudy 49 9.5 47 8.6 94 94 NNE 15 24 29.89 1012 7 11 0.00 0.00
6:15 am 06:15 Mostly Cloudy 48 9.1 47 8.2 94 94 NNE 13 20 29.89 1012 7 11 0.00 0.00
6:35 am 06:35 Mostly Cloudy 48 9 47 8.2 95 95 NNE 10 17 29.91 1013 7 11 0.00 0.00
6:55 am 06:55 Cloudy 49 9.2 47 8.5 95 95 NNE 9 15 29.91 1013 7 11 0.00 0.00
7:15 am 07:15 Cloudy with Mist and Fog 49 9.5 48 8.7 95 95 N 10 17 29.91 1013 5 8 0.00 0.00
7:35 am 07:35 Cloudy 49 9.7 48 9 95 95 N 12 19 29.91 1013 7 11 0.00 0.00
7:55 am 07:55 Cloudy with Mist and Fog 50 10 49 9.2 95 95 NNE 14 22 29.91 1013 5 8 0.00 0.00
8:15 am 08:15 Cloudy 50 10.2 49 9.5 95 95 NNE 13 20 29.92 1013 7 11 0.00 0.00
8:35 am 08:35 Cloudy 51 10.5 49 9.6 94 94 NNE 10 17 29.93 1013 7 11 0.00 0.00
8:55 am 08:55 Cloudy 51 10.5 49 9.5 94 94 NNE 12 19 29.93 1013 10 16 0.00 0.00
9:15 am 09:15 Cloudy 51 10.5 49 9.5 94 94 NNE 12 19 29.94 1014 7 11 0.00 0.00
9:35 am 09:35 Cloudy with Mist and Fog 51 10.5 49 9.5 94 94 NNE 14 22 29.95 1014 5 8 0.00 0.00
9:55 am 09:55 Cloudy with Mist and Fog 51 10.5 49 9.5 94 94 NNE 15 24 29.95 1014 5 8 0.00 0.00
10:15 am 10:15 Cloudy with Mist and Fog 50 10.1 49 9.3 95 95 NNE 15 24 29.96 1015 3 4 0.00 0.00
10:35 am 10:35 Cloudy with Mist and Fog 50 10.1 49 9.4 95 95 N 15 24 29.96 1015 2 3 0.00 0.00
10:55 am 10:55 Cloudy with Mist and Fog 50 10 49 9.5 97 97 N 17 28 29.97 1015 3 5 0.00 0.00
11:15 am 11:15 Cloudy with Mist and Fog 51 10.3 49 9.7 96 96 NNE 16 26 29.97 1015 4 6 0.00 0.00
11:35 am 11:35 Cloudy 51 10.7 50 10 95 95 N 17 28 29.97 1015 7 11 0.00 0.00
11:55 am 11:55 Cloudy 52 11.1 50 10 93 93 N 15 24 29.96 1015 10 16 0.00 0.00
12:15 pm 12:15 Cloudy 53 11.4 50 10.1 92 92 N 15 24 29.96 1015 10 16 0.00 0.00
12:35 pm 12:35 Cloudy 53 11.5 50 10.1 91 91 N 18 30 29.96 1015 10 16 0.00 0.00
12:55 pm 12:55 Cloudy 53 11.6 50 10.2 91 91 N 17 28 29.96 1015 10 16 0.00 0.00
1:15 pm 13:15 Cloudy 53 11.8 51 10.3 91 91 NNE 17 28 29.96 1014 10 16 0.00 0.00
1:35 pm 13:35 Cloudy 54 12 50 10.2 89 89 N 17 28 29.96 1014 10 16 0.00 0.00
1:55 pm 13:55 Cloudy 54 12.1 51 10.4 89 89 N 16 26 29.94 1014 10 16 0.00 0.00
2:15 pm 14:15 Cloudy 55 12.5 51 10.5 88 88 NNE 17 28 29.93 1014 10 16 0.00 0.00
2:35 pm 14:35 Cloudy 55 12.6 51 10.5 87 87 N 16 26 29.93 1014 10 16 0.00 0.00
2:55 pm 14:55 Cloudy 55 12.8 51 10.4 85 85 NNE 14 22 29.93 1013 10 16 0.00 0.00
3:15 pm 15:15 Cloudy 56 13.3 51 10.7 84 84 NNE 16 26 29.92 1013 10 16 0.00 0.00
3:35 pm 15:35 Cloudy 59 15 53 11.7 81 81 NNE 17 28 29.90 1013 10 16 0.00 0.00
3:55 pm 15:55 Cloudy 59 15.1 52 11.3 78 78 NE 14 22 29.89 1012 10 16 0.00 0.00
4:15 pm 16:15 Cloudy 59 15.2 52 11.2 77 77 NE 12 19 29.90 1012 10 16 0.00 0.00
4:35 pm 16:35 Cloudy 59 15 52 11 77 77 N 12 19 29.90 1013 10 16 0.00 0.00
4:55 pm 16:55 Cloudy 59 14.8 52 11 78 78 N 10 17 29.90 1013 10 16 0.00 0.00
5:15 pm 17:15 Cloudy 59 15 52 11.1 78 78 N 12 19 29.90 1013 10 16 0.00 0.00
5:35 pm 17:35 Cloudy 60 15.3 52 11.1 76 76 N 9 15 29.90 1012 10 16 0.00 0.00
5:55 pm 17:55 Cloudy 60 15.6 52 11 74 74 N 9 15 29.90 1013 10 16 0.00 0.00
6:15 pm 18:15 Cloudy 60 15.6 51 10.8 73 73 NNE 7 11 29.90 1013 10 16 0.00 0.00
6:35 pm 18:35 Cloudy 59 15.2 52 11.1 77 77 N 5 7 29.91 1013 10 16 0.00 0.00
6:55 pm 18:55 Cloudy 59 15.1 53 11.5 79 79 Calm 29.92 1013 10 16 0.00 0.00
7:15 pm 19:15 Cloudy 59 15.2 53 11.5 79 79 NNW 5 7 29.92 1013 10 16 0.00 0.00
7:35 pm 19:35 Cloudy 59 15.1 51 10.6 75 75 NNW 7 11 29.93 1013 10 16 0.00 0.00
7:55 pm 19:55 Cloudy 59 15 51 10.8 76 76 NNW 8 13 29.93 1014 10 16 0.00 0.00
8:15 pm 20:15 Cloudy 59 14.8 51 10.8 77 77 NNW 6 9 29.93 1014 10 16 0.00 0.00
8:35 pm 20:35 Cloudy 57 14.1 51 10.5 79 79 NW 5 7 29.95 1014 10 16 0.00 0.00
8:55 pm 20:55 Cloudy 56 13.3 51 10.7 84 84 NW 5 7 29.96 1015 10 16 0.00 0.00
9:15 pm 21:15 Cloudy 57 13.7 51 10.8 83 83 NW 5 7 29.96 1015 10 16 0.00 0.00
9:35 pm 21:35 Cloudy 56 13.5 51 10.7 83 83 NW 5 7 29.97 1015 10 16 0.00 0.00
9:55 pm 21:55 Mostly Cloudy 56 13.2 51 10.5 84 84 NNW 7 11 29.98 1015 10 16 0.00 0.00
10:15 pm 22:15 Partly Cloudy 55 12.6 50 10.2 85 85 NNW 8 13 30.00 1016 10 16 0.00 0.00
10:35 pm 22:35 Clear 54 12.3 49 9.6 84 84 NW 5 7 30.00 1016 10 16 0.00 0.00
10:55 pm 22:55 Clear 52 11 48 9.1 88 88 NW 6 9 30.02 1017 10 16 0.00 0.00
11:15 pm 23:15 Clear 51 10.3 47 8.6 89 89 NW 6 9 30.02 1017 10 16 0.00 0.00
11:35 pm 23:35 Clear 50 10 47 8.5 91 91 NW 7 11 30.04 1017 10 16 0.00 0.00
11:55 pm 23:55 Clear 49 9.3 46 7.9 91 91 NW 7 11 30.05 1018 10 16 0.00 0.00

Powered by AerisWeather